Voltar ao catálogo

CZ-4 DEB

AtivoSSO
NORAD 27688·DEBRIS·🇨🇳 China

Lançado Oct 14, 1999 de Taiyuan Satellite Launch Center

Loading…

Próximas Passagens (próximas 24 horas)

TLE

AtualizadoSource: Space-Track

Época: Sep 12, 2026, 22:46 UTC

1 27688U 99057MU  26255.94883009  .00000918  00000-0  22363-3 0  9999
2 27688  98.4917 322.4914 0079349 338.6110 196.1129 14.53356077739942

Acompanhe CZ-4 DEB em tempo real com AllMySat

Download on the App Store